TIMESTAMP,CO2_1_1_1,H2O_1_1_1,TAU_1_1_1,TAU_SSITC_TEST_1_1_1,H_1_1_1,H_SSITC_TEST_1_1_1,LE_1_1_1,LE_SSITC_TEST_1_1_1,FC_1_1_1,FC_SSITC_TEST_1_1_1,WD_0_0_1,WS_0_0_1,WS_MAX_0_0_1,U_SIGMA_0_0_1,V_SIGMA_0_0_1,W_SIGMA_0_0_1,USTAR_0_0_1,MO_LENGTH_0_0_1,ZL_0_0_1,FETCH_MAX_0_0_1,FETCH_70_0_0_1,FETCH_80_0_0_1,FETCH_90_0_0_1,PA_0_0_1,RH_0_0_1,TA_0_0_1,VPD_0_0_1,T_SONIC_0_0_1,T_SONIC_SIGMA_0_0_1
[yyyymmddHHMMSS],[mmolCO2 mol-1],[mmolH2O mol-1],[kg m-1 s-2],[#],[W m-2],[#],[W m-2],[#],[umolCO2 m-2 s-1],[#],[Decimal degrees],[m s-1],[m s-1],[m s-1],[m s-1],[m s-1],[m s-1],[m],[#],[m],[m],[m],[m],[kPa],[%],[deg C],[hPa],[deg C],[deg C]
20240624003000,411.36022208279689,15.213462388823814,0.27395155822229805,0,19.330396260657395,0,31.631217100481578,0,-3.8316855246566917,0,348.83961266436756,2.6841076157601464,7.6440473014955259,1.0837657485599688,0.76487616943176773,0.58602562265113112,0.49483131291753213,-523.59849337829667,-3.6287346583850112E-002,109.36726584745107,199.95824286955013,239.29894666702447,299.57388498109589,93.997718685753185,70.124333333333340,17.861333333333334,6.0941160134924823,18.743915211895455,0.22255956279857042
20240624010000,412.15953812212575,15.673528398464827,0.15294520277312826,0,-8.3152918877445625,0,23.122022512562072,0,-2.8271857923539496,0,0.83109696629563246,1.9445585429769665,5.4056854462605903,0.78354129483963864,0.60098480423454825,0.39785582171576267,0.36934212243885589,506.34979197339004,3.7523467573575102E-002,117.98244673055079,215.70954119487175,258.14922782470870,323.17220013478135,94.041358025015626,74.740666666666669,17.330333333333328,4.9827266563024386,18.363976074795346,0.20433454395054096
20240624013000,413.42501382935905,15.736216573716728,0.10354452815021428,0,-12.947166759845373,0,13.379048091262229,0,-0.47587179914042804,1,341.00521367484754,1.9115047439480222,5.3660802480905190,0.74474918985017990,0.43911414930646320,0.32004346270280859,0.30356578150375929,180.56256124662593,0.10522668635636138,120.03004909424321,219.45321136498066,262.62944487162616,328.78090023562697,94.042284167968759,78.118333333333339,16.696000000000026,4.1463637723853779,17.756336068047403,0.18834699511524339
20240624020000,414.56759294501200,15.750163870438962,2.5110861354252476E-002,1,-8.4104908804793403,1,2.6512050708242518,1,0.18305301961044346,2,315.86284154153276,1.8049719783580689,3.0964734413504118,0.42449561567451122,0.48613985932495196,0.16091832698755787,0.14930394180431897,33.075726588611793,0.57443938379094694,199.76643326250630,1938.0000000000000,3605.0000000000000,9963.0000000000000,94.065737433159725,81.569999999999993,16.035000000000025,3.3483272198231204,17.251308575100438,0.16770369101344026
20240624023000,416.97586805940892,15.795643945555184,2.2633301645861772E-002,1,1.7767806237783332,2,-0.56934880968112767,2,-7.1774891533421328E-002,2,290.77282708644464,1.0231842473730117,3.0626600267156867,0.84904092112972174,0.38851024658263400,8.6187270462515633E-002,0.14163703047684781,-133.70148861827460,-0.14210761747197959,95.014716037853219,362.00000000000000,523.00000000000000,931.00000000000000,94.102744679036462,83.640000000000001,15.694333333333361,2.9082074368447275,16.974563427395310,0.12937545864429975
20240624030000,416.12694477861334,15.805827678620613,4.2950512974323915E-003,1,-0.53510234173212423,1,1.0735807583098989,2,0.28468653909068120,1,276.74098744881729,1.4532933945467443,2.0529361139140980,0.29747144380952806,0.22364753173557511,4.4856060848494542E-002,6.1702004501407393E-002,36.714223224557429,0.51751060845790331,540.12224588036599,6027.0000000000000,-9999.,-9999.,94.142762455946183,82.993333333333339,15.832333333333338,3.0499776122028197,17.086639613681371,6.7378156294134656E-002
20240624033000,414.65085219613110,15.572149248724365,1.3603251052242374E-003,1,-0.11088533618594595,2,-0.35716108818353726,1,3.0254653252673222E-002,2,291.10913368456943,1.0913536266751120,1.6798612410284761,0.18951516908968535,0.21558351322272418,1.8630167993558600E-002,3.4732956891980922E-002,31.605026737033370,0.60117019226364521,839.11848788321879,9933.0000000000000,-9999.,-9999.,94.157237109809031,80.686999999999998,16.042666666666662,3.5104671649691817,17.296836144341398,6.0356306255438703E-002
20240624040000,414.08684266338088,15.774296839161067,1.2611041186998385E-003,2,-7.1815375168263251E-002,2,4.0174327484817682E-002,2,-1.0692815217331097E-002,1,269.48420041938272,1.2692994561056414,2.3894563725996711,0.40962126333593052,0.36100063160679141,1.9575065919591766E-002,3.3445302396650826E-002,43.572572703861084,0.43605412352244138,956.41407339055399,-9999.,-9999.,-9999.,94.158633996725158,81.556666666666672,16.076999999999998,3.3597470862039200,17.346432442211267,6.9816930789481826E-002
20240624043000,416.42796066528882,15.834337179078974,1.3696727357027966E-003,2,-1.9251272291607087,1,-1.9466378827459376,2,0.66485802532637905,1,255.89334464792756,2.0976995359580899,3.1599055862727683,0.46242684337439055,0.12887929338066684,9.7446066551261271E-002,3.4819327097920044E-002,1.8344975922350804,10.357059110037392,4932.5426908827412,-9999.,-9999.,-9999.,94.185907839192708,84.653333333333336,15.558333333333337,2.7044085026505353,16.933119956122482,0.30634056739718490
20240624050000,416.49742766696977,15.660234324085319,4.9475506451681769E-003,1,-4.8804185211820776,1,5.2846643300473524,1,1.0989702861136375,1,266.13975547326868,1.8441801434276557,2.9687030267302599,0.36297779373288724,0.18572898804861954,0.15305462161227001,6.6127853273669240E-002,4.9574079184239421,3.8326480920376782,1083.2668183303911,9571.0000000000000,-9999.,-9999.,94.203851939236102,85.666666666666671,15.203666666666663,2.4689865770392885,16.525746552361340,0.36094744360389291
20240624053000,416.65754466797245,15.422826197463545,4.2817424889958662E-003,0,-8.9809998695810052,0,11.825425599402186,0,2.1737568751347389,0,261.04793063615466,2.1824752969206758,2.9040601242838209,0.27003011770164514,0.16459742312190334,0.12622172822556135,6.1524094331539735E-002,2.1697307492295583,8.7568469068093542,1593.5240078836321,-9999.,-9999.,-9999.,94.220068378038192,83.646666666666661,15.340000000000032,2.8417214735166660,16.713771547105580,0.34969796439210460
20240624060000,418.20646346106213,15.136303238840553,3.8206239285236876E-003,1,-3.6498067004118955,1,1.7541881311785834,1,1.0797393524919585,1,265.72693848376900,1.3935828985734289,2.1539179971630089,0.32812538466744595,0.22261006404168385,5.6501829906164917E-002,5.8096646742337249E-002,4.4952605686906146,4.2266737844596944,784.69582209669352,6496.0000000000000,-9999.,-9999.,94.220015597222229,82.990666666666669,15.170666666666648,2.9237316537405400,16.505836640252085,0.42234463225596447
20240624063000,414.46013871597745,15.210731881278194,4.4181762330657995E-003,1,3.6761413591110674,1,-7.3175023365559886,1,-1.1504680299947065,1,303.70626125501104,0.93841389096851480,1.6469087918448273,0.27971303360571265,0.22605889683213023,4.6072412274444842E-002,6.2509469337386658E-002,-5.5591007812928073,-3.4178189508522308,100.74379196761801,291.00000000000000,393.00000000000000,624.00000000000000,94.213867651258681,81.842333333333329,15.463000000000022,3.1802660982075555,17.009395746866971,0.36794615078035198
20240624070000,412.75915756233081,12.933231166227493,7.2324410458576467E-003,1,-1.3696655692746073E-002,2,-3.2914567512289343,1,-4.6531645657542656E-002,2,238.05130461724673,0.92208191671254369,1.4959743733513970,0.39550032676361901,0.30407935155239102,4.7513689650564205E-002,8.0082423802055588E-002,3136.3662519988352,6.0579659623269839E-003,178.68884496144875,1035.0000000000000,1669.0000000000000,3589.0000000000000,94.223674446826209,65.121666666666670,16.502999999999986,6.5285054772959050,17.474441631079969,0.40038160308815335
20240624073000,418.29308075356533,14.672142805828150,9.7711287332138460E-003,1,-1.1754494247864655,1,46.438467576453291,2,1.8762086997224177,2,203.72568107716432,1.3246404706995143,2.3481576749141149,0.51215052408898054,0.16163546246388252,9.0899586121116205E-002,9.2866020278558004E-002,57.002912673237397,0.33331630102684934,239.48555636119897,2362.0000000000000,4414.0000000000000,-9999.,94.218769898003472,81.579333333333338,14.952999999999975,3.1222857460102547,16.288610147264308,0.36562108408135535
20240624080000,413.64267369536083,13.879439041816717,8.8125065685561730E-004,2,0.97154803201932105,1,-2.3153951568995308,2,-0.26474380227703836,1,190.86819889666060,1.7416513160903861,2.2506334688560430,0.36460389732776427,0.15367417721540627,4.4239696976026782E-002,2.7924230967148279E-002,-1.8749329673246484,-10.133695620655281,288.69978665579197,800.00000000000000,1068.0000000000000,1664.0000000000000,94.227439199218750,73.126000000000005,15.793333333333351,4.8075773049632655,17.007816387600371,0.28542454494335540
20240624083000,419.59095611742765,14.628302087778767,7.7039727598439489E-003,1,-6.0174044410521264,0,39.584403154161159,0,1.8924766031330353,0,181.58994783460568,1.8034762213495505,2.5504108616429253,0.35615076520740746,0.22398581625513314,0.11306342349796927,8.2502176099083308E-002,7.8072606892551732,2.4336320709962913,670.54616576274134,6161.0000000000000,-9999.,-9999.,94.213352863498272,79.853333333333339,15.238000000000000,3.4780274923937715,16.496327049255342,0.58334732758741803
20240624090000,425.44448307029342,14.520279677831137,3.4232122996571974E-002,0,-29.027740402522792,0,48.425338695126690,0,7.6698731850593198,0,204.48074795100013,2.3195485233811901,3.5818813937518192,0.48077953137927892,0.44707933601899064,0.23542084309094016,0.17370176431375769,15.105760653379297,1.2577982953641944,255.57311004678951,2336.0000000000000,4271.0000000000000,-9999.,94.226968472827068,82.597666666666669,14.600666666666655,2.8834098908475561,15.704423592896887,0.68337002298551386
20240624093000,429.79848561060305,15.067202716146115,1.9087513622823521E-003,1,6.1726304121990223,1,9.6515542668984828,2,-4.4632386185154784,1,196.67829013567356,2.2930339625493219,3.5354685421010696,0.43366083281783441,0.39383448868921361,0.16667774488235446,4.0981874883538216E-002,-0.93316066226969829,-20.360909721362319,184.14244737098636,509.00000000000000,679.00000000000000,1056.0000000000000,94.248352564236114,88.459333333333333,14.115999999999985,1.8531480353823031,15.469176920572863,0.58996954048501316
20240624100000,434.35136380423614,14.400386986737837,5.1272625116423484E-002,0,-18.858947502795111,1,0.30816005126222090,2,-8.5901817250708152,2,209.63875713291429,2.9276031607548636,4.1313826234621285,0.45908669856430279,0.33002474913476670,0.22007174092947834,0.21234797824594789,42.490219173617348,0.44716173202978704,121.68638260202270,222.48151727767956,266.25355360900454,333.31785432243737,94.267071408941717,84.659999999999997,14.098000000000013,2.4603548746700974,15.308353152093559,0.47454144715483537
20240624103000,445.75029056637413,14.727464469938507,2.1750281551681575E-002,1,-11.998870937184750,1,-0.41061981909300771,1,2.5788350468073382,1,205.40881869647865,2.2574599776241149,3.5087003981192115,0.46411252846618622,0.31066874728413990,0.14386387337643550,0.13820296892292644,18.414790228253828,1.0317793341380714,361.52413843744534,3598.0000000000000,6742.0000000000000,-9999.,94.288727793619799,88.843333333333334,13.704666666666640,1.7442705648817014,14.959449310302716,0.39501375061665661
20240624110000,438.07201381115800,14.886124341581356,7.3994784963443347E-003,1,-3.7595745218871812,0,-0.45855401672796192,1,0.35489859405889373,2,173.64452906043260,1.7289429820485573,2.6318871079110644,0.41522381531273989,0.36060110426748571,0.12057500452218314,8.0617621300654640E-002,11.665585725676268,1.6287223330912985,623.88362408245018,6211.0000000000000,-9999.,-9999.,94.285067213324652,89.620000000000005,13.735000000000014,1.6260483328965052,14.972897935655396,0.23275265614524171
20240624113000,437.02581319778761,14.796256876889386,2.0098764158800641E-002,0,2.5722952628838032,2,-3.2225348687442961,2,-3.1862251201060983,2,145.94020672369368,1.7344237138602683,3.3981440669207696,0.41506646329231600,0.63601141045809140,0.18846498450169119,0.13295953729122856,-76.483551726521696,-0.24841942576015982,201.78058319359656,686.00000000000000,965.00000000000000,1637.0000000000000,94.278643188802093,86.823333333333338,14.129000000000019,2.1176333591309979,15.236080824958037,0.43030059412732807
20240624120000,437.15752588187922,14.887956743591909,0.10868574226409389,0,11.904022526923528,1,7.6990098653022692,0,-5.5749728492313988,1,139.39396459105947,2.0044556979722419,4.4402345021659437,0.71696109787435069,0.55422315646462927,0.38617229033498229,0.30915404510001354,-207.79462210876289,-9.1436437609319396E-002,104.80209400307118,191.61165275114112,229.31021004415015,287.06917203586437,94.298697662109376,87.436666666666667,14.119000000000028,2.0177556051655121,15.096457786559995,0.32308756590086479
20240624123000,443.02272117174022,15.396905264080011,0.23117096563205455,0,15.058761875995474,1,8.6740872880577786,0,-5.1562101327647243,0,142.96102203882896,2.3068780019809760,5.3920280365479005,0.85543284859748048,0.75911319227397867,0.54517626416952025,0.45078036468091220,-509.30929717530142,-3.7305425417082670E-002,107.54676238780029,196.62978192550989,235.31562901779515,294.58724396192821,94.309320292529165,91.276666666666671,13.976333333333343,1.3881206914969675,15.097283018069220,0.25791498004627433
20240624130000,433.17703691724319,15.667892260554893,0.19045513604439007,0,35.235089358372058,0,32.763010447528387,0,-4.7375512750431881,1,155.22464749062468,2.1840505937885757,5.6779912927814600,0.86001627489425325,0.84678909908547162,0.56273018058286906,0.41000917446621093,-163.78689662535612,-0.11600439590390639,97.196268738271144,177.70577841353474,212.66843007189797,266.23563829605547,94.299732092247837,86.323333333333338,15.108333333333348,2.3414752677870752,16.174808291270665,0.26638028352168530
20240624133000,421.99638470113507,15.869181675429850,0.18238475268619689,0,56.240339614664911,0,65.980660306408325,0,-3.4878754044726703,0,169.19318048243923,2.0921492486554585,5.4220769899311048,0.87448603048503548,0.82476438734176916,0.56909464560160683,0.40211223071318253,-96.817659667583087,-0.19624518982626951,94.838598289863995,173.39520489342380,207.50977450416394,259.77761367359108,94.318271275607643,80.435999999999993,16.414666666666676,3.6414473261845273,17.497592711554546,0.49291154877747662
20240624140000,413.43316489731569,15.296386972882898,0.36294521682230707,0,91.600820739086146,0,138.75375725991753,0,-9.4936063475697825,0,171.20835393150864,3.0104457478072524,6.8337984418833013,1.2027186511088286,0.94522084888509128,0.72230846973617591,0.56845457655410458,-167.91330063765054,-0.11315363302280121,103.37924300479555,189.01022733124242,226.19696822985443,283.17176271507907,94.308843147135420,71.546666666666667,17.681333333333328,5.7385412205439437,18.649878283182829,0.41969397570812178
20240624143000,411.64027542958883,14.602098523271549,0.45031668041061723,0,110.12833617007887,0,141.37534359008751,0,-13.880344147906239,0,157.78498030711410,2.6181422247366246,7.4493587267267456,1.1165122539835299,1.2478965183669861,0.75938745995561774,0.63414947138853606,-193.86900517163653,-9.8004319892078043E-002,108.40204386218821,198.19350923872656,237.18701123018698,296.92999242555112,94.302436268778834,64.382999999999996,18.620333333333349,7.6197512421469744,19.453658135083401,0.40343616413427930
20240624150000,411.30139639492853,14.676963132660511,0.52362921092485926,0,152.22787604743411,0,136.77288217298809,0,-15.943420029007781,0,160.65062274854435,2.6702804652622754,6.9022158353645295,1.2056870336591150,1.2049742396530250,0.78956507311609436,0.68461326775998099,-176.46970565797685,-0.10766720513958740,111.71225177681227,204.24562504332525,244.42984811634699,305.99716474073256,94.297609884548621,62.135333333333335,19.270666666666671,8.4362389650506593,20.069742721557645,0.42849594575343297
20240624153000,409.20312837263191,14.896910981396223,0.48764808404828036,0,196.52506143181273,0,251.74006563191929,0,-14.018108916328902,0,152.80115238793644,2.1119527000072202,6.5857748116345656,1.2753329436709113,1.1387939785739898,0.75057432266780344,0.66153771241980774,-123.32775674109138,-0.15406102001747851,113.18363122504648,206.93577594710356,247.64927167404181,310.02750100426954,94.286459285156255,60.351666666666667,19.977333333333320,9.2299149002044469,20.763637048509395,0.47538845244164935
20240624160000,408.83384366451639,14.630037556158559,0.56762998478696480,0,185.52295894861163,0,217.38679127626975,0,-12.666403824216994,0,159.23994767644916,3.2578912685191428,8.2732761018144370,1.5191426621594455,1.3506999399078954,0.89479675509771350,0.71453071598090900,-164.60107924248121,-0.11543059187364289,104.59046688570123,191.22473088558161,228.84716339229874,286.48949257486100,94.276144783420136,56.911666666666669,20.632999999999981,10.445329070586078,21.352729012383406,0.46684757039919361
20240624163000,409.59043639531478,14.585067026449137,0.54727020208043831,0,255.64936527552288,0,307.39199654392900,0,-14.819732321692486,0,169.36378097545827,2.2406592690274802,6.9382690365359645,1.2849096334547392,1.3429136181697026,0.84041838966026539,0.70248026522126628,-113.51611981360935,-0.16737710935854333,108.48401867539140,198.34338534178772,237.36637464666035,297.15453413893852,94.284588284288219,54.121333333333332,21.402666666666676,11.660251506371534,22.086526618957578,0.51802422214962407
20240624170000,409.58040767017872,14.533648524330772,0.55442743189580823,0,187.90757481294898,0,212.26049416672248,0,-12.041892118568066,0,183.62408867389414,2.6212314723118593,7.6326661101515914,1.3496140901328311,1.4578673734536687,0.88940175463033944,0.70767858713128196,-157.83717170748162,-0.12037722036233993,104.29064616255748,190.67656298075963,228.19114641426327,285.66823716416707,94.237622174479156,52.680333333333330,21.778000000000020,12.305764914746636,22.444559034559461,0.52629617572182508
20240624173000,408.65747238101443,14.345289582502341,0.85544757272771832,0,271.75384966789403,0,270.85231377168708,0,-14.292981552523070,0,179.63899324645308,2.5771090006988304,8.8441262647680148,1.5442997792895830,1.9137213229504668,0.99767572174731189,0.87974590767098715,-209.64969667630990,-9.0627366989875405E-002,113.22678629471385,207.01467717805903,247.74369629583995,310.14570942592758,94.226043678207816,50.564666666666668,22.234333333333325,13.218649088542886,22.866573929841081,0.58624226692930181
20240624180000,408.68900334505639,14.455448631118768,0.41064073064294976,0,186.27113588960390,0,183.37790044894038,0,-10.686038123475898,0,191.76743231589512,2.7077559037508565,6.8692691680445250,1.1883521721811139,1.2527744560248804,0.84422330165998494,0.60998614310181565,-101.95321098272200,-0.18635999608898957,96.548383592384866,176.52123773448548,211.25083741498682,264.46098050726687,94.218716289954585,49.690333333333335,22.646000000000015,13.793191522194775,23.245874630499429,0.49319836011767643
20240624183000,408.47678414755887,14.506758144198557,0.55594728065437815,0,292.04596120665673,0,315.57526760200926,0,-19.147931634219063,0,174.31892258136688,2.6944607073285578,7.9364428491970420,1.2507421374807886,1.4570125873150497,0.87971125462856681,0.71061055723276456,-102.76061616889528,-0.18489573835147097,105.55725927700161,192.99233571949705,230.96253492592169,289.13768671583910,94.154067633680569,48.323000000000000,23.153999999999996,14.610643436196630,23.702195864359510,0.62510810898729607
20240624190000,407.79786318897487,14.616658681243180,0.51169056573603700,0,45.229128853915853,0,174.74461130488299,0,-13.419334020110274,0,173.58501699719326,2.8939826338643768,8.9050239526583734,1.3737658853889578,1.4222589293934660,0.80644759277572364,0.68173206628598992,-585.54821215466620,-3.2448224767154366E-002,109.46743894538855,200.14139124115081,239.51812849108367,299.84827461575662,94.078639605902779,49.410333333333334,22.897666666666680,14.083144906348096,23.560974883185565,0.30150042696948720
20240624193000,406.62987893144503,15.011140347680573,0.50916866821798756,0,102.75059488506938,0,220.45636476014880,0,-15.265714748624195,0,163.56879105763593,3.3404717205381083,8.5242093455623973,1.4503828978263933,1.2419288852091881,0.89561133645877411,0.68006619617605590,-255.85650018906261,-7.4260376367065672E-002,100.46162171385728,183.67588508382306,219.81312296971362,275.17994598401913,94.066239616753478,50.950666666666663,22.828333333333319,13.597127995793741,23.524201519436303,0.33687029305833133
20240624200000,406.45678777003678,15.318664540111739,0.44800099379945924,0,49.422044214618069,0,221.77598603675460,0,-13.827048075887721,0,182.27995739044275,3.3672703868607505,9.4613110345305422,1.6590836491760343,1.2816488213985640,0.83318691542306633,0.63822075881406115,-439.65438846550410,-4.3215763332453958E-002,101.16672421684922,184.96503734020155,221.35590896651820,277.11133097837217,94.056224066406259,51.295999999999999,23.050000000000011,13.683779107585742,23.790278369479722,0.21730216889398257
20240624203000,406.27823681079082,15.966724747853910,0.55272781231780788,0,120.90907308516677,0,250.33427911583880,0,-16.504991972565314,0,182.08444571576712,3.7618135141184319,9.6204565856831170,1.5567721701424615,1.3893593682613481,0.95119333507106330,0.70932935938652719,-246.73421769039905,-7.7005938527104134E-002,99.018925574561223,181.03817641685586,216.65645937554754,271.22817774745204,94.048424957373740,52.633666666666663,23.308333333333337,13.517301033812998,24.055252442125266,0.37003627585244403
20240624210000,406.28642952795315,16.426085012504284,0.54108229490411119,0,82.829861733988992,0,187.40351381193938,0,-13.842781219882424,0,164.87735767093230,2.8398294066809284,9.1788088895555706,1.4610345548565489,1.4064167490526525,0.83753041974972797,0.70234620438274065,-349.48028447887276,-5.4366443098018628E-002,108.76656664367184,198.85997314185690,237.98459830497805,297.92847679806420,93.980320688368053,53.523333333333333,23.488666666666688,13.408471958160790,24.300837126837848,0.29352120360727008
20240624213000,405.80468070380005,16.869545192445546,0.59717126980822599,0,-26.860240486853264,0,144.71873438085615,0,-5.4941331604434769,0,148.73548343818567,3.2340249233937484,8.8389866994425361,1.4182451753555050,1.2891424324888199,0.89814864145040441,0.73766202180963691,1247.6843870088924,1.5228210112935063E-002,106.97006645891842,195.57539783978095,234.05380056063063,293.00758446757010,93.877004651041645,56.688333333333333,22.960333333333324,12.102923402489257,23.960312366061714,0.17923647024459147
20240624220000,406.29388947907188,16.756428912744447,0.51412912798395427,0,-26.741205177695907,0,131.79984916849074,0,-2.1404230397235668,0,155.57334289422505,3.2430287290811255,8.2795227281512016,1.3418703601910869,1.1639672401140617,0.84995835169942402,0.68439288508318652,1000.5416336259676,1.8989714532061910E-002,105.28855662579885,192.50106157478325,230.37460524786661,288.40166852518769,93.836907530307187,56.853999999999999,22.793999999999983,11.935789432174650,23.798049116086986,0.15434707209806148
20240624223000,405.01582066740900,16.896769619084829,0.70439043240346699,0,19.572753983408727,0,197.89400619231182,0,-9.1734655671749614,0,155.57037029846396,3.1881217296897186,8.9337570992054758,1.6303445341165816,1.1953607446605798,0.89883771839538718,0.80204413793038154,-2199.7232182511639,-8.6374503130014178E-003,114.30585698710809,208.98756255570157,250.10473621092177,313.10145122842152,93.809284722656244,55.240333333333332,23.403333333333308,12.846846634995343,24.310512218051485,0.28636091493473331
20240624230000,406.99122669513906,16.276361759942500,0.86416040946804729,0,3.9931204107358251,1,143.61203512416057,0,-6.3558676707517474,0,161.41021894181185,3.8936640464039214,10.778711619148103,1.8604008277035728,1.4986654933557815,1.1155010771641647,0.88861197676277004,-14655.915080707582,-1.2964048914974123E-003,104.38753313084666,190.85370325930592,228.40313808542476,285.93362558061443,93.751649950254887,52.999000000000002,23.459666666666692,13.536056416372315,24.325391019568315,0.12190583879161006